Whitefield, NH

1:32 PM EDT on September 20, 2017 (GMT -0400)
Mount Washington Regional

Weather History for KHIE - November, 2013

Change the Weather History Date:

Saturday, November 23, 2013

  Actual Average Record
Temperature  
Mean Temperature 29 °F -  
Max Temperature 39 °F 38 °F 61 °F (1999)
Min Temperature 19 °F 21 °F 1 °F (2000)
Degree Days  
Heating Degree Days 36    
Moisture  
Dew Point 19 °F    
Average Humidity 76    
Maximum Humidity 97    
Minimum Humidity 52    
Precipitation  
Precipitation 0.10 in - - ()
Sea Level Pressure  
Sea Level Pressure 29.77 in    
Wind  
Wind Speed 8 mph (West)    
Max Wind Speed 16 mph    
Max Gust Speed 26 mph    
Visibility 7 miles    
Events Fog , Rain , Snow    
Averages and records for this station are not official NWS values.
T = Trace of Precipitation, MM = Missing Value Source: NWS Daily Summary

Daily Weather History Graph

Daily Weather History Graph

Search for Another Location

Airport or City:

Trip Planner

Search our weather history database for the weather conditions in past years. The results will help you decide how hot, cold, wet, or windy it might be!

Date:

Astronomy

Nov. 23, 2013 Rise Set
Actual Time 6:52 AM EST 4:12 PM EST
Civil Twilight 6:20 AM EST 4:44 PM EST
Nautical Twilight 5:44 AM EST 5:19 PM EST
Astronomical Twilight 5:10 AM EST 5:54 PM EST
Moon 9:43 PM EST (11/23) 11:03 AM EST (11/23)
Length of Visible Light 10h 23m
Length of Day
9h 19m
Waning Gibbous, 70% of the Moon is Illuminated
Nov 23
Waning Gibbous
Nov 25
Last Quarter
Dec 2
New
Dec 9
First Quarter
Dec 17
Full

Hourly Weather History & Observations

Time (EST) Temp. Windchill Dew Point Humidity Pressure Visibility Wind Dir Wind Speed Gust Speed Precip Events Conditions
12:52 AM 36.0 °F - 34.0 °F 93% 29.79 in 5.0 mi Calm Calm - 0.02 in Rain Light Rain
1:01 AM 36.0 °F - 35.1 °F 97% 29.75 in 7.0 mi Calm Calm - 0.00 in   Overcast
1:52 AM 39.0 °F 32.8 °F - N/A% 29.81 in 10.0 mi WNW 9.2 mph - 0.00 in   Overcast
2:29 AM 36.0 °F 28.0 °F - N/A% 29.78 in 10.0 mi West 11.5 mph 26.5 mph N/A   Scattered Clouds
2:52 AM 36.0 °F 30.3 °F - N/A% 29.82 in 10.0 mi West 6.9 mph - N/A   Mostly Cloudy
3:28 AM 34.0 °F 26.0 °F - N/A% 29.80 in 10.0 mi West 10.4 mph 26.5 mph N/A   Overcast
3:52 AM 34.0 °F 26.6 °F - N/A% 29.84 in 10.0 mi WSW 9.2 mph - N/A   Overcast
4:52 AM 33.1 °F 23.0 °F - N/A% 29.86 in 10.0 mi WNW 15.0 mph 18.4 mph N/A   Overcast
5:52 AM 30.9 °F 21.2 °F - N/A% 29.89 in 10.0 mi West 12.7 mph 21.9 mph N/A   Overcast
6:52 AM 30.0 °F 19.5 °F - N/A% 29.90 in 10.0 mi West 13.8 mph 23.0 mph N/A   Overcast
7:52 AM 28.9 °F 20.4 °F - N/A% 29.91 in 10.0 mi West 9.2 mph - 0.00 in   Overcast
8:41 AM 28.9 °F 18.6 °F - N/A% 29.87 in 10.0 mi West 12.7 mph 20.7 mph N/A   Overcast
8:52 AM 28.9 °F 18.6 °F - N/A% 29.91 in 10.0 mi WNW 12.7 mph 20.7 mph N/A   Overcast
9:41 AM 28.9 °F 18.6 °F 21.0 °F 72% 29.88 in 10.0 mi West 12.7 mph 19.6 mph N/A   Overcast
9:52 AM 28.9 °F 19.2 °F 21.9 °F 75% 29.92 in 10.0 mi WNW 11.5 mph - N/A   Overcast
10:04 AM 28.9 °F 18.2 °F 23.0 °F 78% 29.88 in 10.0 mi West 13.8 mph 19.6 mph N/A   Overcast
10:52 AM 28.9 °F 18.6 °F 21.9 °F 75% 29.91 in 10.0 mi WNW 12.7 mph - N/A   Overcast
11:52 AM 28.9 °F 23.9 °F 19.9 °F 69% 29.87 in 10.0 mi West 4.6 mph - N/A   Overcast
12:52 PM 30.0 °F 20.0 °F 17.1 °F 59% 29.84 in 10.0 mi West 12.7 mph - N/A   Overcast
1:52 PM 30.9 °F 21.7 °F 15.1 °F 52% 29.81 in 10.0 mi WNW 11.5 mph 20.7 mph N/A   Overcast
2:52 PM 28.9 °F 21.9 °F 16.0 °F 58% 29.79 in 10.0 mi WNW 6.9 mph - 0.00 in   Mostly Cloudy
3:52 PM 28.9 °F 21.9 °F 15.1 °F 56% 29.78 in 10.0 mi West 6.9 mph - N/A   Overcast
4:52 PM 27.0 °F 21.6 °F 18.0 °F 69% 29.77 in 10.0 mi West 4.6 mph - N/A   Mostly Cloudy
5:52 PM 27.0 °F - 19.0 °F 72% 29.75 in 10.0 mi Calm Calm - N/A   Mostly Cloudy
6:40 PM 26.1 °F 20.5 °F 19.9 °F 78% 29.69 in 10.0 mi SW 4.6 mph - N/A   Overcast
6:52 PM 26.1 °F 21.9 °F 19.9 °F 78% 29.73 in 10.0 mi SSW 3.5 mph - N/A   Overcast
7:52 PM 27.0 °F 23.0 °F 21.0 °F 78% 29.71 in 10.0 mi SW 3.5 mph - N/A   Overcast
7:59 PM 27.0 °F 21.6 °F 21.0 °F 78% 29.66 in 1.8 mi SW 4.6 mph - 0.00 in Snow Light Snow
8:01 PM 26.1 °F 20.5 °F 21.9 °F 84% 29.66 in 1.0 mi SW 4.6 mph - 0.00 in Snow Light Snow
8:08 PM 26.1 °F 20.5 °F 21.9 °F 84% 29.66 in 0.5 mi SW 4.6 mph - 0.01 in Fog , Snow Snow
8:24 PM 26.1 °F 18.4 °F 23.0 °F 88% 29.66 in 0.2 mi WNW 6.9 mph - 0.05 in Fog , Snow Heavy Snow
8:32 PM 26.1 °F 13.6 °F 23.0 °F 88% 29.66 in 0.2 mi West 16.1 mph 24.2 mph 0.07 in Fog , Snow Heavy Snow
8:40 PM 25.0 °F 12.6 °F 21.9 °F 88% 29.67 in 0.2 mi NW 15.0 mph 26.5 mph 0.07 in Fog , Snow Heavy Snow
8:52 PM 25.0 °F 13.6 °F 19.0 °F 78% 29.73 in 1.8 mi NW 12.7 mph 24.2 mph 0.08 in Snow Light Snow
8:58 PM 25.0 °F 16.3 °F 19.0 °F 78% 29.68 in 2.5 mi WNW 8.1 mph 24.2 mph 0.00 in Snow Light Snow
9:06 PM 24.1 °F 14.4 °F 19.0 °F 81% 29.69 in 6.0 mi NW 9.2 mph - 0.00 in   Haze
9:52 PM 24.1 °F 13.7 °F 17.1 °F 75% 29.75 in 8.0 mi West 10.4 mph 21.9 mph 0.00 in   Overcast
10:07 PM 23.0 °F 14.7 °F 17.1 °F 78% 29.71 in 10.0 mi WNW 6.9 mph 21.9 mph N/A   Overcast
10:21 PM 23.0 °F 12.4 °F 16.0 °F 74% 29.71 in 10.0 mi WNW 10.4 mph - N/A   Overcast
10:38 PM 21.9 °F 8.7 °F 14.0 °F 72% 29.72 in 10.0 mi NW 15.0 mph - N/A   Overcast
10:52 PM 21.0 °F 9.9 °F 12.9 °F 71% 29.77 in 10.0 mi West 10.4 mph 16.1 mph N/A   Mostly Cloudy
11:28 PM 21.0 °F 11.4 °F 12.9 °F 71% 29.72 in 6.0 mi NW 8.1 mph - 0.00 in Snow Light Snow
11:35 PM 19.9 °F 11.1 °F 14.0 °F 78% 29.72 in 1.8 mi WNW 6.9 mph - 0.00 in Snow Light Snow
11:43 PM 19.9 °F 10.1 °F 14.0 °F 78% 29.72 in 3.0 mi WNW 8.1 mph - 0.00 in Snow Light Snow
11:52 PM 19.9 °F 7.3 °F 12.9 °F 74% 29.77 in 2.0 mi WNW 12.7 mph 20.7 mph 0.00 in Snow Light Snow
11:56 PM 19.9 °F 7.9 °F 12.9 °F 74% 29.72 in 1.0 mi WNW 11.5 mph 20.7 mph 0.00 in Snow Light Snow